Simultaneous Nadir Overpasses (SNOs) Predictions

Prediction of SNOs between GOES-16 and NOAA-19 Satellite Orbit:

Table of predicted SNOs for the next 14.0 days since TLE Epoch: 8/1/2025
Index Date Time (GOES-16) GOES-16 Lat,Lon NOAA-19 Lat,Lon Distance(km) Time Diff (sec)
1 08/03/2025 05:01:42 -0.00,-104.72 -0.51,-106.84 242.31 80
2 08/04/2025 04:46:24 0.00,-104.72 0.24,-103.78 108.14 80
3 08/05/2025 04:33:44 0.00,-104.72 0.93,-100.70 458.45 80
4 08/06/2025 17:07:34 0.00,-104.75 0.78,-108.19 392.68 80
5 08/07/2025 16:54:54 0.00,-104.74 0.06,-105.12 42.26 80
6 08/08/2025 16:39:35 -0.01,-104.74 -0.65,-102.05 308.31 80
7 08/11/2025 05:00:50 0.00,-104.71 -0.39,-106.48 201.39 80
8 08/12/2025 04:45:30 0.01,-104.71 0.31,-103.41 149.06 80
9 08/13/2025 04:32:51 0.01,-104.71 1.01,-100.33 499.51 80
10 08/14/2025 17:06:38 0.00,-104.74 0.69,-107.82 350.58 80
11 08/15/2025 16:53:57 0.00,-104.74 0.02,-104.73 2.41 80
